sat.trackr.live / text

‹ back to catalog

STARLINK-31368

NORAD 58970 · 2024-031F

PAYLOAD ACTIVE UNKNOWN

§ Identity

Operator
Country
US
Launch date
2024-02-15
Launch site
AFWTR
Launch vehicle
Mass (kg)
RCS (m²)

Purposes: comms

External: N2YO · Heavens-Above · Gunter

§ Orbital elements

Epoch: 2026-09-19T22:58:05.106720Z

Period
93.85 min
Inclination
53.1594°
Eccentricity
0.0001064
Mean motion
15.34405512 rev/d
Perigee alt
462.0 km
Apogee alt
463.4 km
Semi-major
6,840.8 km
B*
7.1983e-5
RAAN
112.4162°
Arg perigee
100.2076°
Mean anomaly
259.9047°
Rev number
14,630

§ Raw data

STARLINK-313681 58970U 24031F   26262.95700355  .00002057  00000+0  71983-4 0  99962 58970  53.1594 112.4162 0001064 100.2076 259.9047 15.34405512146302

JSON: /api/v1/satellites/58970 · /tle

For live sub-satellite position, see the globe view (requires WebGL).

§ Visibility from observer

Set your observer location to see the next 7 days of passes ≥ 10°. The values pass through the URL so the page stays shareable.

No JS? Fill the form by hand. The geolocation button needs JavaScript.